Flag for U.S.A. Weather past 2 weeks in Jackson, Mississippi, U.S.A.

Now
72 °F

Light rain. Overcast.


Feels Like: 71 °F
Forecast: 69 / 84 °F
Wind: 3 mph from Northwest

Location: Hawkins Field

Current Time: Aug 1, 2014 at 10:11:22 PM

Latest Report: Aug 1, 2014 at 8:53 PM


Visibility: 9 mi

Pressure: 29.97 "Hg

Humidity: 84%

Dew point: 67 °F

Location of JacksonLocation

Historic Weather in Jackson — Graph

°F

Jackson temperature yesterday

Maximum temperature yesterday: 83 °F (at 1:53 PM)
Minimum temperature yesterday: 71 °F (at 7:53 AM)
Average temperature yesterday: 76 °F

Past Weeks' High & Low Weather Summary

 TemperatureHumidityPressure
High93 °F (Jul 26, 1:53 PM)90% (Jul 18, 11:53 PM)30.11 "Hg (Jul 18, 11:53 PM)
Low61 °F (Jul 30, 5:53 AM)36% (Jul 30, 4:53 PM)29.88 "Hg (Jul 18, 4:53 PM)
Average78 °F70%30.00 "Hg
* Reported Jul 17 8:53 PM — Aug 1 8:53 PM, Jackson, Weather by CustomWeather, © 2014

Note: Actual official high and low records may vary slightly from our data, if they occured in-between our weather recording intervals... More about our weather records

Advertising

Jackson weather history for previous 24 hours

 ConditionsComfort  
Time TempWeatherWind HumidityBarometerVisibility
8:53 PM
Aug 1
72 °FLight rain. Overcast.3 mph84%29.97 "Hg9 mi
7:53 PM73 °FRain. More clouds than sun.5 mph79%29.98 "Hg4 mi
6:53 PM77 °FLight rain. Overcast.No wind69%29.97 "Hg8 mi
5:53 PM77 °FLight rain. Broken clouds.5 mph71%29.97 "Hg10 mi
4:53 PM79 °FOvercast.6 mph60%29.98 "Hg10 mi
3:53 PM78 °FOvercast.6 mph62%29.99 "Hg10 mi
2:53 PM78 °FOvercast.3 mph66%30.00 "Hg10 mi
1:53 PM76 °FLight rain. Overcast.N/A69%30.01 "Hg10 mi
12:53 PM75 °FLight rain. Mostly cloudy.N/A74%30.02 "Hg7 mi
11:53 AM75 °FLight rain. Mostly cloudy.5 mph69%30.03 "Hg8 mi
10:53 AM75 °FPassing clouds.No wind64%30.02 "Hg10 mi
9:53 AM76 °FOvercast.6 mph60%30.01 "Hg10 mi
8:53 AM75 °FBroken clouds.N/A64%30.02 "Hg10 mi
7:53 AM75 °FBroken clouds.3 mph66%30.01 "Hg10 mi
6:53 AM72 °FOvercast.No wind78%30.01 "Hg10 mi
5:53 AM72 °FOvercast.3 mph76%29.99 "Hg10 mi
4:53 AM73 °FMostly cloudy.6 mph71%29.98 "Hg10 mi
3:53 AM74 °FOvercast.No wind67%29.98 "Hg10 mi
2:53 AM75 °FOvercast.No wind66%29.98 "Hg10 mi
1:53 AM75 °FOvercast.5 mph69%29.99 "Hg10 mi
12:53 AM75 °FOvercast.No wind71%30.00 "Hg10 mi
11:53 PM
Jul 31
73 °FClear.No wind76%30.02 "Hg10 mi
10:53 PM74 °FClear.No wind71%30.01 "Hg10 mi
Weather by CustomWeather, © 2014

See weather overviewHow to use our weather pages